Voltar ao catálogo

STARLINK-36805

AtivoComunicaçõesSSO
NORAD 68116·PAYLOAD·🇺🇸 United States

Lançado Mar 8, 2026 de Vandenberg Space Force Base

Loading…

Próximas Passagens (próximas 24 horas)

TLE

AtualizadoSource: CelesTrak SupGP

Época: Sep 15, 2026, 03:00 UTC

1 68116C 26044R   26258.12548611  .00004723  00000+0  14665-3 0  2587
2 68116  97.2854 217.1680 0001615  91.8299 323.4134 15.33427931    14

Acompanhe STARLINK-36805 em tempo real com AllMySat

Download on the App Store